TimeCDT,TemperatureF,Dew PointF,Humidity,Sea Level PressureIn,VisibilityMPH,Wind Direction,Wind SpeedMPH,Gust SpeedMPH,PrecipitationIn,Events,Conditions,WindDirDegrees,DateUTC
12:15 AM,69.8,68.0,94,29.98,10.0,North,-9999.0,-,0.01,,Drizzle,0,2013-09-20 05:15:00
12:35 AM,69.8,68.0,94,29.98,10.0,North,-9999.0,-,0.01,Rain,Rain,0,2013-09-20 05:35:00
12:55 AM,69.8,68.0,94,29.98,10.0,North,-9999.0,-,0.01,,Drizzle,0,2013-09-20 05:55:00
1:15 AM,69.8,68.0,94,29.98,7.0,North,-9999.0,-,0.01,Rain,Rain,0,2013-09-20 06:15:00
1:35 AM,69.8,68.0,94,29.98,10.0,North,-9999.0,-,0.02,Rain,Light Rain,0,2013-09-20 06:35:00
1:55 AM,69.8,68.0,94,29.96,10.0,North,-9999.0,-,0.04,Rain,Rain,0,2013-09-20 06:55:00
2:15 AM,69.8,68.0,94,29.95,10.0,North,-9999.0,-,0.01,Rain,Rain,0,2013-09-20 07:15:00
2:35 AM,69.8,68.0,94,29.95,10.0,North,-9999.0,-,0.01,Rain,Rain,0,2013-09-20 07:35:00
2:55 AM,69.8,68.0,94,29.95,10.0,North,-9999.0,-,0.02,Rain,Light Rain,0,2013-09-20 07:55:00
3:15 AM,69.8,68.0,94,29.95,10.0,North,-9999.0,-,N/A,Rain,Light Rain,0,2013-09-20 08:15:00
3:35 AM,69.8,68.0,94,29.93,10.0,North,-9999.0,-,0.01,Rain,Light Rain,0,2013-09-20 08:35:00
3:55 AM,69.8,68.0,94,29.93,7.0,North,-9999.0,-,0.03,Rain,Rain,0,2013-09-20 08:55:00
4:15 AM,69.8,68.0,94,29.93,10.0,North,-9999.0,-,0.01,Rain,Light Rain,0,2013-09-20 09:15:00
4:35 AM,69.8,68.0,94,29.94,5.0,North,-9999.0,-,0.05,Rain,Heavy Rain,0,2013-09-20 09:35:00
4:55 AM,69.8,68.0,94,29.93,7.0,North,-9999.0,-,0.09,Rain,Rain,0,2013-09-20 09:55:00
5:15 AM,69.8,68.0,94,29.93,7.0,North,-9999.0,-,0.03,Rain,Rain,0,2013-09-20 10:15:00
5:35 AM,69.8,68.0,94,29.92,7.0,North,-9999.0,-,0.06,Rain,Rain,0,2013-09-20 10:35:00
5:55 AM,69.8,68.0,94,29.93,7.0,North,-9999.0,-,0.08,Rain,Heavy Rain,0,2013-09-20 10:55:00
6:15 AM,69.8,68.0,94,29.93,7.0,North,-9999.0,-,0.02,Rain,Rain,0,2013-09-20 11:15:00
6:35 AM,69.8,68.0,94,29.95,5.0,North,-9999.0,-,0.07,Rain,Rain,0,2013-09-20 11:35:00
6:55 AM,69.8,68.0,94,29.94,7.0,North,-9999.0,-,0.11,Rain,Rain,0,2013-09-20 11:55:00
7:15 AM,69.8,68.0,94,29.93,5.0,North,-9999.0,-,0.05,Rain,Heavy Rain,0,2013-09-20 12:15:00
7:35 AM,69.8,68.0,94,29.93,7.0,North,-9999.0,-,0.09,Rain,Rain,0,2013-09-20 12:35:00
7:55 AM,68.0,68.0,100,29.94,10.0,North,-9999.0,-,0.10,Rain,Light Rain,0,2013-09-20 12:55:00
8:15 AM,68.0,66.2,94,29.95,10.0,North,-9999.0,-,0.01,Rain,Light Rain,0,2013-09-20 13:15:00
8:35 AM,68.0,66.2,94,29.95,10.0,North,-9999.0,-,0.01,,Light Drizzle,0,2013-09-20 13:35:00
8:55 AM,69.8,68.0,94,29.96,10.0,North,-9999.0,-,0.01,,Clear,0,2013-09-20 13:55:00
9:15 AM,69.8,68.0,94,29.96,10.0,North,-9999.0,-,N/A,Rain,Light Rain,0,2013-09-20 14:15:00
9:35 AM,69.8,68.0,94,29.96,10.0,North,-9999.0,-,0.01,Rain,Light Rain,0,2013-09-20 14:35:00
9:55 AM,69.8,68.0,94,29.96,10.0,North,-9999.0,-,0.02,Rain,Rain,0,2013-09-20 14:55:00
10:15 AM,69.8,68.0,94,29.97,5.0,North,-9999.0,-,0.03,Rain,Rain,0,2013-09-20 15:15:00
10:35 AM,69.8,68.0,94,29.97,5.0,North,-9999.0,-,0.05,Rain,Rain,0,2013-09-20 15:35:00
10:55 AM,69.8,68.0,94,29.97,10.0,North,-9999.0,-,0.07,Rain,Rain,0,2013-09-20 15:55:00
11:15 AM,69.8,68.0,94,29.97,10.0,North,-9999.0,-,0.01,Rain,Rain,0,2013-09-20 16:15:00
11:35 AM,69.8,68.0,94,29.98,10.0,North,-9999.0,-,0.02,Rain,Light Rain,0,2013-09-20 16:35:00
11:55 AM,69.8,68.0,94,29.98,10.0,North,-9999.0,-,0.02,Rain,Light Rain,0,2013-09-20 16:55:00
12:15 PM,69.8,68.0,94,29.98,10.0,North,-9999.0,-,0.01,Rain,Light Rain,0,2013-09-20 17:15:00
12:35 PM,69.8,68.0,94,29.98,10.0,North,-9999.0,-,0.01,Rain,Light Rain,0,2013-09-20 17:35:00
12:55 PM,68.0,64.4,88,29.98,7.0,North,-9999.0,-,0.01,Rain,Light Rain,0,2013-09-20 17:55:00
1:15 PM,68.0,64.4,88,29.99,10.0,North,-9999.0,-,N/A,,Scattered Clouds,0,2013-09-20 18:15:00
1:35 PM,69.8,64.4,83,30.00,10.0,North,-9999.0,-,N/A,,Mostly Cloudy,0,2013-09-20 18:35:00
1:55 PM,68.0,64.4,88,30.00,10.0,North,-9999.0,-,N/A,Rain,Light Rain,0,2013-09-20 18:55:00
2:15 PM,68.0,62.6,83,30.00,10.0,North,-9999.0,-,0.01,,Light Drizzle,0,2013-09-20 19:15:00
2:35 PM,68.0,62.6,83,29.99,10.0,North,-9999.0,-,0.01,,Overcast,0,2013-09-20 19:35:00
2:55 PM,68.0,62.6,83,29.98,10.0,North,-9999.0,-,0.01,,Mostly Cloudy,0,2013-09-20 19:55:00
3:15 PM,68.0,62.6,83,29.98,10.0,North,-9999.0,-,N/A,,Scattered Clouds,0,2013-09-20 20:15:00
3:35 PM,69.8,60.8,73,29.98,10.0,North,-9999.0,-,N/A,,Mostly Cloudy,0,2013-09-20 20:35:00
3:55 PM,69.8,60.8,73,29.98,10.0,North,-9999.0,-,N/A,,Scattered Clouds,0,2013-09-20 20:55:00
4:15 PM,69.8,60.8,73,29.99,10.0,North,-9999.0,-,N/A,,Mostly Cloudy,0,2013-09-20 21:15:00
4:35 PM,69.8,60.8,73,29.99,10.0,North,-9999.0,-,N/A,,Overcast,0,2013-09-20 21:35:00
4:55 PM,69.8,60.8,73,29.98,10.0,North,-9999.0,-,N/A,,Overcast,0,2013-09-20 21:55:00
5:15 PM,68.0,62.6,83,29.98,10.0,North,-9999.0,-,N/A,,Light Drizzle,0,2013-09-20 22:15:00
5:35 PM,68.0,62.6,83,29.99,10.0,North,-9999.0,-,N/A,,Scattered Clouds,0,2013-09-20 22:35:00
5:55 PM,68.0,62.6,83,30.00,10.0,North,-9999.0,-,N/A,,Mostly Cloudy,0,2013-09-20 22:55:00
6:15 PM,69.8,62.6,78,30.00,10.0,North,-9999.0,-,N/A,,Overcast,0,2013-09-20 23:15:00
6:35 PM,69.8,60.8,73,30.01,10.0,North,-9999.0,-,N/A,,Overcast,0,2013-09-20 23:35:00
6:55 PM,68.0,60.8,78,30.01,10.0,North,-9999.0,-,N/A,,Overcast,0,2013-09-20 23:55:00
7:15 PM,68.0,60.8,78,30.02,10.0,North,-9999.0,-,N/A,,Overcast,0,2013-09-21 00:15:00
7:35 PM,68.0,62.6,83,30.02,10.0,North,-9999.0,-,N/A,,Overcast,0,2013-09-21 00:35:00
7:55 PM,68.0,62.6,83,30.03,10.0,North,-9999.0,-,N/A,,Overcast,0,2013-09-21 00:55:00
8:15 PM,68.0,62.6,83,30.03,10.0,North,-9999.0,-,N/A,,Overcast,0,2013-09-21 01:15:00
8:35 PM,68.0,62.6,83,30.03,10.0,North,-9999.0,-,N/A,,Mostly Cloudy,0,2013-09-21 01:35:00
8:55 PM,68.0,62.6,83,30.04,10.0,North,-9999.0,-,N/A,,Scattered Clouds,0,2013-09-21 01:55:00
9:15 PM,68.0,62.6,83,30.04,10.0,North,-9999.0,-,N/A,,Mostly Cloudy,0,2013-09-21 02:15:00
9:35 PM,68.0,62.6,83,30.05,10.0,North,-9999.0,-,N/A,,Mostly Cloudy,0,2013-09-21 02:35:00
9:55 PM,66.2,62.6,88,30.05,10.0,North,-9999.0,-,N/A,,Scattered Clouds,0,2013-09-21 02:55:00
10:15 PM,66.2,62.6,88,30.05,10.0,North,-9999.0,-,N/A,,Clear,0,2013-09-21 03:15:00
10:35 PM,66.2,62.6,88,30.05,10.0,North,-9999.0,-,N/A,,Mostly Cloudy,0,2013-09-21 03:35:00
10:55 PM,68.0,62.6,83,30.07,10.0,North,-9999.0,-,N/A,,Overcast,0,2013-09-21 03:55:00
11:15 PM,68.0,62.6,83,30.07,10.0,North,-9999.0,-,N/A,,Overcast,0,2013-09-21 04:15:00
11:35 PM,68.0,62.6,83,30.06,10.0,North,-9999.0,-,N/A,,Overcast,0,2013-09-21 04:35:00
11:55 PM,68.0,62.6,83,30.06,10.0,North,-9999.0,-,N/A,,Overcast,0,2013-09-21 04:55:00